Showing default

CHINASAT 2A, 38352

Orbit data source: Space-Track

CHINASAT 2A, 38352 is a payload satellite owned by PLA GAD (CN) in GEO that was launched on Sat, 26 May 2012 UTC via a CHANG ZHENG 3B launch vehicle from the Xichang Space Center, China (XSC). Payload-class satellites include a variety of spacecraft equipped with specific instruments for various scientific and technological missions. These include communications satellites like Starlink; space stations such as the ISS; scientific satellites like the Hubble; Earth observation satellites from companies like Planet Labs, Umbra, and HawkEye 360; GPS; miniature CubeSats for education and research; and military/defense satellites.

Not visible in the next 10 days
Identifier
38352, 2012-028A
Orbit
GEO
Country
Flag of CNCN / PRC
Related business
Manufacturer
CAST?
Mission
Operational Defense Communications
Bus & Motor
DFH-4, TQS492-2
Mass
~5,000 kg wet, ~2,500 kg dry
Launch date (UTC)
2012-05-26 (14 years ago)
Launch vehicle
CHANG ZHENG 3B
Launch site
Xichang Space Center, China (XSC)
Object type
Payload
Rocket body
Debris
Shape & HBR
Box + 2 Pan, 15.0 m
Radar Cross Section
34.063 m², Large (>1 m²)

Expand to show TLE details & history
Last TLE update: 22 hours ago

TLE from 22 hours ago
0 CHINASAT 2A
1 38352U 12028A   26094.11711435 -.00000293  00000-0  00000-0 0  9993
2 38352   1.2634  84.8470 0000928 337.3258 270.7036  1.00271664 50557
Epoch: 2026-04-04T02:48Z
TLE epoch observation values (Epoch: 2026-04-04T02:48:38.679Z)
Latitude
-1.15067°
Longitude
98.26569°
Altitude
35,786.209 km
Speed
3.075 km/s
True Right ascension
22h 11m 28s
True Declination
-1° 08' 58"
Sunlit
Object was in daylight at epoch
Visualization orbit readout
Latitude
Unknown
Longitude
Unknown
Altitude
Unknown
Speed
Unknown
Apparent Right ascension
Unknown
Apparent Declination
Unknown
Sunlit
N/A
Visualization observer readout
Local Sidereal Time
06:27:38
Azimuth
Unknown
Elevation
Unknown
Doppler factor
Unknown
Orbital elements
Apogee altitude
35,791.611 km
Perigee altitude
35,783.786 km
Semi-major axis
42,165.836 km
Eccentricity
0.00009
Inclination
1.2634°
RAAN
84.847°
Arg. of periapsis
337.3258°
True anomaly
270.69297°
Mean anomaly
270.7036°
Eccentric anomaly
270.69828°
Mean motion
0.25067 °/min
Orbital period
1,436.15 mins
BSTAR
0
Loading maneuver chart data...
Computing Atmospheric mass density...
Loading historical data...
Loading historical data...
Loading historical data...
Loading historical data...
Loading historical data...
Loading historical data...
Loading historical data...
Other satellites on launch #28 in the year 2012 (2012-05-26 UTC)

Documentation

Showing up to 5 results
|